Location: Boiro
(42.6475°N, 8.8834°W)
Time: 12:59:25
(UTC+01:00)

Vanguard 2 Rocket - Pass Details

Date: 17 December 2021
Orbit: 554 x 3325 km, 32.9° (Epoch: 19 January)

Event Time Altitude Azimuth Distance (km) Brightness Sun altitude
Rises 19:00:49 0° 255° (WSW) 2,752 11.5 -10.2°
Reaches altitude 10° 19:03:18 10° 237° (WSW) 1,956 10.1 -10.7°
Maximum altitude 19:06:31 20° 188° (S) 1,596 8.5 -11.2°
Drops below altitude 10° 19:10:37 10° 141° (SE) 2,554 9.0 -11.9°
Sets 19:14:28 0° 127° (SE) 3,932 9.8 -12.6°
